DELTA 1 DEB, 21333

Orbit data source: Space-Track

DELTA 1 DEB, 21333 is space debris in SSO originally from a launch on Thu, 12 Jun 1975 UTC launched from the Air Force Western Test Range (AFWTR). Debris objects in space refer to the collection of defunct objects orbiting the Earth. Examples of debris include non-operational satellites, rocket bodies, and fragments generated from explosions, collisions, or faulty payload assembly.

Loading next visibility...
Identifier
21333, 1975-052BB
Orbit
SSO
Country
Flag of USUS
Related business
Manufacturer
Unknown
Mission
Spacecraft
Bus & Motor
Unknown
Mass
Unknown
Launch date (UTC)
1975-06-12 (51 years ago)
Launch vehicle
Unknown
Launch site
Air Force Western Test Range (AFWTR)
Object type
Payload
Rocket body
Debris
Shape & HBR
Unknown shape, 0.2 m
Radar Cross Section
Medium (>0.1 m² and <1 m²)

Expand to show TLE details & history
Last TLE update: 2 days ago

TLE from 2 days ago
0 DELTA 1 DEB
1 21333U 75052BB  26171.38563147  .00000029  00000-0  12312-3 0  9998
2 21333  99.8008 326.4988 0004489 117.4008 271.7011 13.45489032724588
Epoch: 2026-06-20T09:15Z
TLE epoch observation values (Epoch: 2026-06-20T09:15:18.559Z)
Latitude
28.63192°
Longitude
-86.31321°
Altitude
1,092.223 km
Speed
7.309 km/s
True Right ascension
21h 24m 27s
True Declination
28° 29' 38"
Sunlit
Object was in daylight at epoch
Visualization orbit readout
Latitude
Unknown
Longitude
Unknown
Altitude
Unknown
Speed
Unknown
Apparent Right ascension
Unknown
Apparent Declination
Unknown
Sunlit
N/A
Visualization observer readout
Local Sidereal Time
16:05:32
Azimuth
Unknown
Elevation
Unknown
Doppler factor
Unknown
Orbital elements
Apogee altitude
1,089.565 km
Perigee altitude
1,082.864 km
Semi-major axis
7,464.351 km
Eccentricity
0.00045
Inclination
99.8008°
RAAN
326.4988°
Arg. of periapsis
117.4008°
True anomaly
271.64968°
Mean anomaly
271.7011°
Eccentric anomaly
271.67539°
Mean motion
3.36554 °/min
Orbital period
106.97 mins
BSTAR
0.00012312
Loading maneuver chart data...
Computing Atmospheric mass density...
Loading historical data...
Loading historical data...
Loading historical data...
Loading historical data...
Loading historical data...
Loading historical data...
Loading historical data...

Documentation

Showing up to 5 results
|